RH
31 31 31 32 34 35 36 36 37 39 39 39 38 36 34 32 29 25 22 19 17 17 15 14 13 12 11 11 11 10 11 11 11 11 12 12 13 13 12 11 10 8 8 7 9 14 13 11 14 16 17 17 18 19 19 17 14 13 13 13 14 13 13 12 15 15 11 13 13 14 13 10 16 14 15 19 22 32 35 39 46 48 51 52 54 59 56 49
31 31 31 31 31 33 34 35 35 35 35 37 37 37 37 36 34 30 25 21 19 18 17 16 14 13 12 11 11 11 11 10 11 11 11 12 13 13 11 11 10 9 9 8 9 12 11 11 12 15 18 20 21 19 18 18 15 14 14 12 12 13 13 15 17 16 12 15 14 14 13 12 20 19 16 24 29 35 40 46 49 51 54 55 59 61 56 49
33 32 32 32 32 32 32 33 34 34 34 35 35 34 36 37 38 36 30 26 22 19 18 17 16 15 13 12 11 11 11 12 14 13 12 12 12 12 11 11 10 9 10 9 10 11 11 12 14 16 19 21 21 19 19 20 17 15 14 13 13 12 14 18 18 15 13 15 15 14 13 12 20 24 20 22 29 36 40 46 49 50 51 53 54 52 51 46
34 33 33 32 33 33 33 34 33 34 35 35 34 32 34 37 38 39 36 32 27 21 19 19 17 17 15 14 12 11 13 15 15 13 12 13 13 13 12 11 11 10 10 10 10 11 12 14 15 17 18 18 19 21 21 21 20 16 14 13 13 12 14 18 16 13 13 14 16 15 13 11 17 24 23 21 29 38 41 48 50 47 47 48 48 48 48 42
34 34 33 34 35 35 35 35 33 33 33 32 33 32 34 38 39 40 39 36 30 23 21 20 18 18 16 15 14 13 16 16 14 14 13 13 13 13 13 12 12 11 10 11 11 12 13 15 15 16 17 15 18 22 21 21 20 18 15 12 13 15 15 16 14 12 13 14 15 15 11 11 18 23 23 23 32 41 41 47 51 47 45 44 45 46 45 40
33 34 34 33 36 35 33 33 31 31 31 29 31 32 35 39 41 41 41 38 32 25 22 21 20 19 18 17 15 16 20 18 19 19 15 14 14 13 13 13 12 12 11 11 12 11 13 15 15 15 15 14 17 23 23 21 20 20 18 13 14 16 15 15 13 13 14 14 14 13 12 13 18 19 19 25 37 43 41 46 52 50 47 44 46 46 43 39
32 32 33 33 34 34 32 30 29 27 28 31 32 33 35 39 41 41 41 39 34 28 23 22 22 20 19 18 16 19 23 20 19 21 17 15 14 13 13 13 12 12 11 11 12 11 12 15 15 14 15 13 15 20 22 22 21 20 19 16 16 16 16 15 14 15 14 12 11 12 13 12 13 13 14 24 36 41 42 50 56 52 49 46 47 45 42 38
32 31 31 32 32 32 31 29 28 26 26 31 34 33 33 36 39 40 42 40 34 28 25 23 22 22 21 19 20 23 23 19 16 18 18 15 14 13 12 12 13 13 12 12 12 11 12 15 14 14 14 14 14 17 20 21 21 21 19 17 17 16 16 15 15 16 14 12 11 12 12 9 11 12 15 24 34 40 43 52 56 54 51 48 46 45 42 38
33 32 30 30 31 31 31 30 28 26 27 32 35 34 33 33 36 38 39 40 35 28 25 24 23 23 21 20 24 26 21 19 17 17 18 16 16 15 11 12 13 12 13 13 12 12 13 14 14 13 13 14 15 17 18 18 20 20 18 17 17 17 16 15 15 16 15 12 10 11 10 8 11 14 19 24 31 41 44 49 54 54 52 50 48 47 46 40
35 34 32 30 29 29 30 30 29 27 29 33 34 35 34 32 34 36 35 36 35 29 26 25 24 23 23 26 29 25 21 20 20 20 20 18 19 18 14 14 15 13 14 14 13 12 13 13 13 13 13 15 17 17 16 16 17 18 18 18 17 17 17 16 15 15 14 12 11 11 9 10 11 14 21 23 27 39 45 48 51 52 51 51 49 49 50 43
35 34 33 32 29 27 27 27 29 31 32 33 34 34 33 32 33 34 33 33 32 29 28 26 26 23 25 34 33 25 21 21 21 21 21 19 19 20 17 17 16 15 15 14 14 12 12 13 12 12 12 14 16 16 15 13 14 16 18 20 19 17 16 16 15 14 13 11 13 12 10 13 11 14 24 25 24 34 43 46 46 46 45 46 47 48 50 44
36 35 33 33 31 28 26 25 28 32 35 34 33 33 32 31 31 32 33 32 30 27 26 26 26 26 31 37 33 25 23 22 24 24 23 20 18 18 18 18 17 16 15 15 14 13 12 13 12 12 13 14 14 15 14 13 13 15 18 20 21 18 16 15 15 14 13 13 14 12 12 14 11 14 24 25 23 29 37 39 41 44 44 46 46 44 47 44
37 36 34 33 33 31 28 24 25 30 34 35 34 33 32 31 31 32 32 32 29 25 24 25 24 29 38 37 29 25 24 24 25 25 23 21 19 19 19 19 20 18 16 15 15 14 13 14 12 12 15 16 15 14 14 14 14 15 17 19 20 20 17 15 16 15 14 15 15 12 12 13 12 12 18 22 23 27 34 38 43 45 46 50 48 44 47 45
40 38 36 35 34 33 30 26 24 25 29 33 34 33 31 30 30 31 31 29 28 26 24 24 23 30 39 34 25 23 24 24 24 23 21 20 20 21 20 19 20 20 18 16 16 17 15 14 14 13 15 16 16 15 14 14 14 14 17 18 18 20 18 15 15 15 14 16 16 13 12 14 12 11 14 20 23 26 35 43 49 51 54 54 49 47 50 49
43 41 38 37 36 34 33 28 25 24 25 27 30 32 31 30 30 29 29 25 25 25 23 24 23 31 37 28 23 23 22 22 22 23 23 20 19 19 19 19 19 20 20 18 18 19 17 15 15 14 15 15 15 16 16 16 14 14 16 18 17 18 18 16 15 15 13 14 16 14 13 14 13 14 17 21 25 29 35 44 47 49 56 55 51 54 53 50
46 45 41 39 37 36 34 29 27 25 24 25 26 28 28 28 29 28 26 23 23 25 24 25 26 31 34 25 22 23 21 20 20 22 23 19 17 17 18 19 19 20 21 20 19 20 19 16 15 14 14 14 14 17 19 19 17 15 16 17 18 17 15 15 16 15 13 13 16 14 12 14 16 19 21 22 27 29 30 40 41 40 48 50 51 59 56 53
51 49 45 42 39 37 35 30 28 27 26 25 24 25 24 25 26 25 24 22 23 27 26 27 30 31 29 23 21 21 20 20 20 21 20 18 16 15 16 18 19 21 23 22 21 22 21 19 17 16 15 14 14 16 18 21 20 16 16 17 17 17 14 15 18 16 14 14 15 14 12 16 22 25 27 23 24 24 25 38 44 43 48 46 47 59 62 62
56 52 46 44 42 38 35 31 29 28 27 25 24 23 23 27 29 27 29 27 26 33 32 30 33 32 26 23 21 20 20 20 20 20 18 17 16 15 15 17 19 21 24 25 23 23 23 20 19 18 16 15 14 16 17 21 22 17 18 18 17 17 13 15 20 17 15 16 16 14 13 20 27 28 28 23 22 24 25 36 44 45 48 47 51 60 65 68
59 54 49 46 45 41 35 31 30 29 29 28 25 25 26 31 31 29 33 32 30 33 30 28 30 27 22 23 22 18 19 19 19 19 17 16 16 15 15 16 19 22 24 26 25 24 24 23 22 20 18 15 14 15 15 18 20 17 18 18 16 16 13 14 20 19 17 17 17 14 13 21 29 28 26 22 21 25 26 33 41 44 46 49 58 65 65 70
58 56 52 48 47 43 37 32 30 31 31 31 31 32 30 31 31 31 36 35 30 27 23 24 28 23 19 22 23 20 19 20 20 19 17 17 15 15 15 17 21 23 23 24 24 24 24 24 23 20 17 15 14 15 14 16 18 19 21 19 14 15 15 14 18 21 19 18 18 15 14 22 29 29 28 24 23 26 29 34 40 45 47 51 65 73 70 70
56 56 54 51 47 44 37 32 31 32 32 33 37 36 30 32 39 42 44 42 34 26 20 22 28 25 19 21 24 23 22 19 19 20 18 18 16 16 16 18 22 23 21 23 24 24 23 22 20 18 17 15 14 14 15 15 17 20 24 23 17 15 17 17 17 22 22 21 22 17 18 28 31 30 31 30 29 30 33 40 46 48 49 55 70 76 73 69
57 56 54 52 48 44 38 32 31 31 32 36 40 36 31 38 46 46 47 47 41 34 25 20 26 28 22 22 25 26 25 21 19 20 20 18 17 17 16 19 23 24 22 23 24 23 21 19 19 17 16 16 16 16 16 16 17 19 23 26 22 18 20 19 17 21 22 24 25 21 23 32 35 33 35 33 31 33 40 48 54 54 53 59 70 74 72 68
63 58 55 52 48 45 38 32 31 31 31 38 40 35 34 41 46 45 46 48 45 44 36 23 23 26 23 23 26 26 26 23 20 21 21 19 18 17 17 20 24 24 23 23 23 23 20 17 18 19 17 16 18 19 17 17 19 19 20 27 27 21 21 21 18 20 22 25 27 23 25 35 40 39 40 39 34 38 45 47 49 52 57 63 70 73 72 65
69 61 55 51 49 45 38 34 33 30 32 39 40 36 37 42 45 43 44 46 42 40 39 30 25 23 20 23 27 26 25 24 22 22 21 19 19 18 17 20 25 26 23 22 22 23 22 19 18 19 18 17 18 20 20 19 20 19 20 26 28 23 21 21 19 18 21 26 26 21 25 37 44 45 49 48 41 43 48 46 46 49 55 62 66 69 68 62
71 64 55 51 50 44 38 36 31 30 36 42 40 36 35 37 40 42 43 45 40 33 33 33 30 24 18 22 27 24 24 25 23 21 20 19 20 19 18 21 26 28 26 24 24 25 26 24 21 19 19 19 19 19 21 20 19 20 20 23 27 25 21 20 20 20 24 27 23 20 30 44 46 47 54 54 47 48 51 51 50 50 53 58 61 63 61 59
72 68 56 51 52 45 40 39 37 39 44 43 38 38 37 35 39 41 42 44 38 30 28 27 29 26 18 19 23 23 24 23 22 22 22 20 20 20 20 22 26 30 30 29 27 26 27 27 25 22 20 20 20 19 18 19 20 21 21 20 23 25 21 19 21 24 26 27 23 21 31 49 52 49 54 57 55 54 52 52 52 50 52 56 56 56 54 54
75 70 58 53 54 47 42 45 52 56 54 49 44 45 45 42 42 40 44 50 38 25 25 24 24 25 20 17 20 22 22 20 22 26 27 24 22 20 21 23 26 30 33 33 31 27 26 28 28 24 21 20 20 18 18 19 20 20 21 19 20 23 21 19 22 24 26 27 26 23 26 44 53 48 51 58 60 58 53 51 51 48 50 53 53 50 48 49
78 71 59 57 55 47 43 49 61 65 61 59 54 52 50 44 44 45 52 58 41 23 23 23 23 25 21 17 18 19 21 23 24 25 27 27 24 21 21 24 27 30 34 35 32 29 28 29 29 25 22 21 19 18 18 20 20 19 20 20 18 19 19 20 21 22 27 29 28 26 26 38 46 43 48 56 59 62 60 54 50 47 48 51 49 45 43 46
80 72 63 61 56 49 45 50 62 67 65 67 60 55 54 50 51 59 63 55 38 27 27 26 26 24 21 18 17 19 21 26 26 23 26 30 26 22 21 23 29 32 34 35 32 30 30 29 28 27 23 20 20 19 18 20 20 18 22 23 17 16 20 22 21 22 29 33 31 28 28 36 41 40 47 54 58 63 63 59 53 47 47 50 46 41 40 44
80 72 66 63 57 51 47 53 64 67 68 71 64 58 61 58 57 66 68 51 36 32 32 32 29 24 21 19 18 19 21 26 26 24 29 33 28 23 22 24 29 33 35 35 33 31 34 31 28 30 28 22 20 19 17 19 20 19 22 26 22 18 20 22 23 23 29 37 35 30 31 35 38 40 44 50 57 60 59 59 55 48 48 51 47 41 39 43
80 72 67 63 58 52 53 62 67 67 68 68 64 61 64 62 59 65 60 44 38 38 35 35 32 27 24 20 19 20 22 27 27 25 30 35 31 25 24 26 29 33 35 35 33 33 39 38 31 31 32 29 25 21 18 20 24 21 18 24 27 23 21 23 24 24 30 37 33 32 36 36 39 46 49 50 56 58 59 60 56 51 52 53 49 45 42 44
80 72 67 60 55 53 61 70 68 66 67 66 64 61 62 63 64 62 49 38 43 43 37 38 36 34 30 25 24 22 22 28 27 24 29 34 32 26 24 26 28 33 34 34 35 36 41 42 34 30 33 34 30 25 24 24 23 21 16 22 31 29 25 26 25 26 32 34 31 32 35 37 47 57 57 60 63 60 60 61 57 53 54 53 51 48 45 45
78 74 68 57 55 61 69 72 69 66 65 65 64 61 63 66 61 56 48 43 49 47 43 43 39 37 35 31 30 24 23 28 25 24 29 31 31 26 23 25 27 32 33 32 36 41 43 43 37 33 33 35 31 28 31 27 20 19 17 21 30 33 32 29 25 27 31 31 32 31 30 42 62 68 62 66 68 64 61 62 61 61 59 55 52 49 47 46
80 77 70 59 59 71 77 74 69 67 65 62 62 65 69 65 53 49 49 50 53 52 51 50 42 38 37 34 32 27 24 27 24 24 27 30 32 28 23 24 27 31 33 34 38 43 44 41 37 33 33 37 34 30 33 30 22 18 16 21 30 34 35 31 24 26 29 30 29 27 33 52 72 76 66 61 61 61 62 62 65 68 64 58 54 52 50 46
79 75 71 63 65 77 81 73 68 68 65 58 61 68 66 58 52 51 52 50 53 55 55 53 47 40 37 35 33 28 24 25 25 26 27 28 30 29 25 24 26 29 34 39 40 41 43 40 35 33 33 35 33 28 29 32 29 22 17 24 31 30 33 32 27 27 31 34 30 34 53 69 75 77 72 64 61 60 60 63 67 69 64 58 56 53 50 47
75 72 73 71 73 80 80 74 72 70 61 57 65 67 59 57 59 59 61 59 57 61 62 54 47 43 39 36 35 29 23 24 28 30 29 26 27 29 26 24 25 27 34 39 37 37 41 40 38 38 38 35 31 26 25 31 34 27 22 25 28 30 34 36 34 31 34 38 37 48 70 77 76 80 78 71 70 67 65 68 69 67 63 57 57 57 52 46
83 83 85 83 81 82 80 76 74 66 55 59 68 66 64 70 71 68 71 70 67 71 70 59 48 45 42 41 40 31 22 27 34 33 31 27 26 27 26 25 24 25 32 37 36 36 38 40 41 41 41 38 33 28 26 31 35 31 25 23 29 35 34 34 37 36 37 39 39 53 71 71 70 79 80 76 76 73 70 69 68 66 62 56 56 57 52 46
94 96 95 88 82 81 78 73 68 58 52 63 73 71 75 81 78 74 74 74 74 75 76 68 56 49 45 44 44 34 23 29 37 36 36 34 28 26 25 24 22 23 31 36 39 40 39 39 42 41 41 40 36 31 30 34 36 34 28 24 30 38 35 33 36 39 41 38 38 56 68 61 61 71 75 74 74 73 71 69 68 66 62 57 55 55 53 51
95 96 89 79 74 75 72 64 60 55 56 71 83 82 81 81 80 78 74 73 75 76 78 75 65 57 50 44 44 36 25 28 36 39 41 37 32 29 25 23 22 23 31 36 38 43 41 38 41 42 41 42 40 34 32 36 36 34 33 31 32 35 33 32 33 37 42 37 38 58 67 59 59 64 65 65 65 67 70 70 70 68 64 59 56 56 57 55
94 92 86 80 77 74 68 59 54 56 64 76 83 83 81 79 79 78 75 74 75 76 78 77 72 67 57 48 45 37 25 28 37 41 41 39 37 35 28 24 22 22 29 36 38 42 43 39 41 43 42 42 41 35 30 32 34 34 35 35 35 32 30 33 32 34 39 37 38 53 64 67 67 63 64 67 64 63 66 69 72 70 64 61 58 59 60 59
96 94 87 81 78 74 68 58 54 61 70 75 79 79 78 78 77 74 74 74 72 73 75 76 74 70 62 56 51 40 28 30 38 40 41 41 40 38 32 27 25 23 28 37 41 42 44 43 42 44 44 41 38 34 30 31 34 35 33 33 35 32 31 36 37 34 36 38 38 44 61 75 73 66 70 74 69 66 65 66 69 67 65 64 62 61 62 61
97 98 87 74 72 72 67 61 61 69 74 74 76 76 75 76 76 74 73 71 66 66 70 74 74 70 64 61 55 44 32 31 38 41 41 41 41 40 35 31 31 30 28 35 40 41 45 47 43 42 42 39 37 36 34 34 36 37 35 33 33 32 31 34 37 37 36 38 39 46 67 82 76 69 75 77 74 72 69 66 65 65 66 67 66 64 63 63
94 95 82 70 72 74 69 68 71 74 75 75 74 72 72 74 76 75 73 69 63 63 68 71 71 69 65 63 58 51 39 32 37 42 42 42 42 41 39 35 36 36 32 34 39 43 50 51 45 42 41 40 41 40 37 35 34 37 37 34 33 32 30 29 31 35 38 39 40 52 74 86 82 77 76 75 75 75 75 73 70 68 66 66 67 66 65 64
95 91 82 77 78 77 74 76 76 73 72 73 71 70 72 75 76 75 72 69 63 63 69 72 73 71 67 64 59 53 45 36 35 41 44 44 42 41 40 37 38 39 36 37 40 43 49 50 45 45 47 47 45 43 40 34 31 34 35 31 32 32 30 30 30 33 38 38 38 53 75 84 83 82 77 73 75 77 78 77 74 72 69 66 67 68 66 65
93 90 86 84 83 80 78 78 79 76 74 74 73 71 74 76 75 72 69 68 62 61 67 74 76 74 69 66 60 53 49 42 38 42 45 45 44 42 39 38 39 39 36 38 42 43 48 50 47 47 51 52 46 41 39 34 29 33 35 33 34 33 31 33 32 33 37 35 39 59 79 86 85 82 79 76 77 79 78 77 75 75 73 69 68 68 67 66
96 92 85 82 80 79 78 77 80 81 78 78 76 72 73 77 74 69 66 65 61 59 66 73 77 77 70 66 63 55 47 43 41 43 46 48 49 45 40 38 39 39 39 41 43 43 46 50 48 46 50 52 46 37 35 35 32 33 36 37 37 35 35 36 33 34 33 37 54 69 73 82 88 83 80 81 79 79 78 76 76 75 74 73 70 70 69 68
97 88 79 77 74 73 74 73 76 77 76 77 75 70 71 73 72 69 64 63 63 63 67 68 71 76 71 66 65 58 51 48 44 45 49 51 51 48 44 41 39 41 41 40 40 42 45 49 51 53 54 54 50 43 38 37 34 33 36 39 38 37 37 36 35 39 35 40 66 76 65 74 87 83 81 83 80 79 79 78 78 77 75 74 72 72 72 70
93 83 75 74 72 72 74 72 70 70 71 75 73 69 71 70 68 67 62 62 64 65 69 68 67 71 70 67 66 60 55 53 50 52 56 55 54 51 47 43 42 43 40 38 41 44 45 49 56 61 59 53 51 50 46 42 38 38 39 40 40 38 35 35 40 48 46 46 63 74 70 77 85 83 82 82 79 79 79 78 79 77 75 73 71 71 70 68
90 83 75 73 72 73 73 70 66 65 67 72 70 68 70 70 67 63 60 63 66 64 67 68 66 68 68 65 64 61 61 60 59 61 60 58 59 57 50 45 44 42 39 39 41 42 44 51 58 62 59 54 53 55 54 51 46 42 38 39 44 43 39 41 47 51 53 55 60 65 72 80 82 80 81 81 79 77 76 76 76 74 72 71 69 68 67 66
93 88 79 74 72 71 71 70 68 68 68 70 69 65 65 65 63 61 60 65 67 62 61 62 62 64 66 65 62 63 66 67 68 69 67 65 65 61 54 49 46 45 42 39 39 40 43 52 58 58 57 56 56 58 61 60 57 52 48 49 55 56 52 54 56 54 56 63 64 64 71 80 80 77 80 80 78 75 73 71 70 68 68 67 64 63 63 64
95 92 86 83 81 79 77 73 73 76 76 74 71 66 64 64 63 64 64 62 60 57 55 57 58 61 66 68 65 64 67 67 67 69 71 70 67 62 58 54 50 49 45 41 42 42 43 52 59 58 59 58 56 59 65 67 66 66 66 65 64 65 66 69 70 65 63 67 68 65 69 76 75 73 78 80 76 74 72 69 67 66 66 65 63 63 63 63
89 90 90 92 93 91 88 84 82 84 84 81 80 77 75 73 70 71 70 61 53 52 52 54 58 61 64 66 65 66 67 63 63 67 67 64 60 60 60 56 52 50 47 45 49 48 46 55 63 62 63 63 58 57 64 68 70 75 76 72 70 71 72 75 78 75 70 67 66 63 65 69 68 69 76 80 77 75 72 69 68 67 65 65 65 65 65 66